Location: Beekmeers
(50.8953°N, 3.6968°E)
Time: 03:42:29
(UTC+00:00)

USA 267 - Pass Details

Date: 23 May 2024
Orbit: 1100 x 1107 km, 123.0° (Epoch: 21 May)

Event Time Altitude Azimuth Distance (km) Brightness Sun altitude
Rises 01:58:48 0° 67° (ENE) 3,921 7.2 -12.4°
Reaches altitude 10° 02:01:19 10° 64° (ENE) 2,963 6.5 -12.2°
Maximum altitude 02:07:42 59° 347° (NNW) 1,264 3.8 -11.6°
Drops below altitude 10° 02:14:05 10° 271° (W) 2,959 5.2 -11.0°
Sets 02:16:35 0° 267° (W) 3,916 5.8 -10.8°
